Location: Axtheid
(49.6213°N, 11.8205°E)
Time: 22:02:46
(UTC+00:00)

Envisat - Pass Details

Date: 27 January 2022
Orbit: 764 x 765 km, 98.2° (Epoch: 21 May)

Event Time Altitude Azimuth Distance (km) Brightness Sun altitude
Rises 16:38:24 0° 215° (SW) 3,219 7.3 -6.6°
Reaches altitude 10° 16:41:44 10° 239° (WSW) 2,299 7.1 -7.1°
Maximum altitude 16:44:33 15° 273° (W) 1,985 6.3 -7.5°
Drops below altitude 10° 16:47:23 10° 307° (NW) 2,309 6.0 -7.9°
Sets 16:50:47 0° 331° (NNW) 3,242 6.4 -8.4°
